Weather History for KEND - April, 2014

Change the Weather History Date:

Friday, April 11, 2014

  Actual Average Record
Temperature  
Mean Temperature 66 °F -  
Max Temperature 82 °F 67 °F 82 °F (2003)
Min Temperature 51 °F 45 °F 26 °F (2013)
Cooling Degree Days 2    
Growing Degree Days 16 (Base 50)    
Moisture  
Dew Point 50 °F    
Average Humidity 61    
Maximum Humidity 100    
Minimum Humidity 42    
Precipitation  
Precipitation 0.00 in - - ()
Sea Level Pressure  
Sea Level Pressure 29.91 in    
Wind  
Wind Speed 12 mph (East)    
Max Wind Speed 17 mph    
Max Gust Speed 21 mph    
Visibility 10 miles    
Events      
Averages and records for this station are not official NWS values.
T = Trace of Precipitation, MM = Missing Value Source: NWS Daily Summary

Daily Weather History Graph

Daily Weather History Graph

Search for Another Location

Airport or City:

Trip Planner

Search our weather history database for the weather conditions in past years. The results will help you decide how hot, cold, wet, or windy it might be!

Date:

Astronomy

Apr. 11, 2014 Rise Set
Actual Time 7:03 AM CDT 8:02 PM CDT
Civil Twilight 6:37 AM CDT 8:28 PM CDT
Nautical Twilight 6:06 AM CDT 9:00 PM CDT
Astronomical Twilight 5:33 AM CDT 9:32 PM CDT
Moon 4:49 PM CDT (4/11) 4:53 AM CDT (4/11)
Length of Visible Light 13h 51m
Length of Day
12h 58m
Waxing Gibbous, 87% of the Moon is Illuminated
Apr 11
Waxing Gibbous
Apr 15
Full
Apr 22
Last Quarter
Apr 29
New
May 6
First Quarter

Hourly Weather History & Observations

Time (CDT) Temp. Heat Index Dew Point Humidity Pressure Visibility Wind Dir Wind Speed Gust Speed Precip Events Conditions
12:58 AM 57.6 °F - 40.3 °F 53% 29.92 in 10.0 mi NE 12.7 mph - N/A   Clear
1:58 AM 56.5 °F - 39.9 °F 54% 29.91 in 10.0 mi NE 12.7 mph - N/A   Clear
2:58 AM 54.5 °F - 40.1 °F 58% 29.91 in 10.0 mi NE 16.1 mph - N/A   Clear
3:55 AM 53.6 °F - 39.2 °F 58% 29.88 in 10.0 mi NE 17.3 mph - N/A   Partly Cloudy
4:53 AM 51.8 °F - 39.2 °F 62% 29.93 in 10.0 mi NE 15.0 mph - N/A   Scattered Clouds
4:55 AM 51.8 °F - 39.2 °F 62% 29.93 in 10.0 mi NE 15.0 mph - N/A   Scattered Clouds
5:56 AM 51.8 °F - 39.2 °F 62% 29.92 in 10.0 mi NE 11.5 mph - N/A   Scattered Clouds
6:57 AM 51.8 °F - 39.2 °F 62% 29.95 in 10.0 mi NE 9.2 mph - N/A   Mostly Cloudy
7:55 AM 51.8 °F - 41.0 °F 67% 29.99 in 10.0 mi NE 10.4 mph - N/A   Mostly Cloudy
8:55 AM 55.4 °F - 41.0 °F 58% 29.99 in 10.0 mi ENE 12.7 mph - N/A   Scattered Clouds
9:55 AM 60.8 °F - 46.4 °F 59% 29.97 in 10.0 mi ESE 12.7 mph - N/A   Scattered Clouds
10:55 AM 64.4 °F - 51.8 °F 64% 29.98 in 10.0 mi East 6.9 mph - N/A   Clear
11:55 AM 69.8 °F - 55.4 °F 60% 29.99 in 10.0 mi SE 3.5 mph - N/A   Clear
12:55 PM 73.4 °F - 57.2 °F 57% 29.96 in 10.0 mi ESE 6.9 mph - N/A   Clear
1:55 PM 78.8 °F - 55.4 °F 44% 29.93 in 10.0 mi SE 8.1 mph - N/A   Clear
2:55 PM 80.6 °F 80.8 °F 57.2 °F 45% 29.90 in 10.0 mi ENE 9.2 mph 19.6 mph N/A   Clear
3:55 PM 82.4 °F 82.0 °F 57.2 °F 42% 29.87 in 10.0 mi East 9.2 mph - N/A   Partly Cloudy
4:55 PM 82.4 °F 82.0 °F 57.2 °F 42% 29.87 in 10.0 mi SE 13.8 mph - N/A   Partly Cloudy
5:55 PM 82.4 °F 82.0 °F 57.2 °F 42% 29.85 in 10.0 mi SSE 12.7 mph - N/A   Scattered Clouds
6:55 PM 78.8 °F - 59.0 °F 51% 29.83 in 10.0 mi ESE 16.1 mph 20.7 mph N/A   Scattered Clouds
7:58 PM 74.3 °F - 59.9 °F 61% 29.85 in 10.0 mi SE 11.5 mph - N/A   Clear
8:58 PM 69.4 °F - 60.4 °F 73% 29.86 in 10.0 mi SE 10.4 mph - N/A   Clear
9:58 PM 66.0 °F - 61.7 °F 86% 29.87 in 10.0 mi ESE 8.1 mph - N/A   Clear
10:58 PM 63.5 °F - 63.0 °F 98% 29.87 in 10.0 mi SE 11.5 mph - N/A   Clear
11:58 PM 62.1 °F - 62.1 °F 100% 29.86 in 10.0 mi ESE 10.4 mph - N/A   Clear